Simultaneous Nadir Overpasses (SNOs) Predictions

Prediction of SNOs between GOES-14 and NPP Satellite Orbit:

Table of predicted SNOs for the next 14.0 days since TLE Epoch: 2/3/2024
Index Date Time (GOES-14) GOES-14 Lat,Lon NPP Lat,Lon Distance(km) Time Diff (sec)
1 02/04/2024 08:52:29 -0.02,-108.48 0.60,-111.34 325.91 80
2 02/05/2024 08:31:04 -0.02,-108.47 -0.37,-106.80 189.78 80
3 02/06/2024 20:53:00 0.01,-108.48 -0.80,-112.11 413.83 80
4 02/07/2024 20:36:54 0.01,-108.47 0.18,-107.57 101.79 80
5 02/10/2024 08:37:17 -0.01,-108.43 -0.02,-108.31 13.78 80
6 02/12/2024 20:43:08 0.01,-108.43 -0.15,-109.08 74.34 80
7 02/13/2024 20:21:44 0.02,-108.42 0.89,-104.55 441.46 80
8 02/15/2024 08:46:11 -0.01,-108.40 0.29,-109.82 161.55 80
9 02/16/2024 08:24:45 -0.01,-108.39 -0.69,-105.28 354.04 80
